Kaministiqua — CFN4612 — position and weather

sailwx.info

Track history (hours):
 
Tides and Currents Weather Stations Pressure Air Temp Water Temp Dewpoint Dewpoint Depression Visibility Wind Speed Wind Dir Waves Ship Positions

Kaministiqua

Last reported at 2014-Oct-30 18:33 UTC. Time now 2014-Oct-31 04:53 UTC.
Position N 44°14' W 076°08'.

Length 223 m; draft 8 m.

Type: Cargo ship. MMSI: 316009457.

Date/timePositionNaut miles runAvg speedWind from/ knotsBaromVisibWave heightAir tempDewpointWater temp
2014-Oct-30 18:33N 44°14' W 076°08'1110.9
2014-Oct-30 17:33N 44°08' W 076°20'1212.0
2014-Oct-30 16:32N 43°58' W 076°30'  
2014-Oct-24 10:27N 44°02' W 076°28'1011.5
2014-Oct-24 09:33N 44°10' W 076°19'96 6.9
2014-Oct-23 19:33N 45°06' W 074°29'1010.4
2014-Oct-23 18:33N 45°12' W 074°18'11 9.0
2014-Oct-23 17:22N 45°13' W 074°03'7 8.3
2014-Oct-23 16:33N 45°18' W 073°56'1 1.1
2014-Oct-23 15:33N 45°19' W 073°55'2 1.9
2014-Oct-23 14:33N 45°20' W 073°53'9 9.3
2014-Oct-23 13:34N 45°25' W 073°42'5 5.4
2014-Oct-23 12:33N 45°24' W 073°34'1 1.5
2014-Oct-23 11:33N 45°25' W 073°32'7 3.2
2014-Oct-23 09:30N 45°31' W 073°31'7 7.3
2014-Oct-23 08:33N 45°38' W 073°29'10 9.5
2014-Oct-23 07:33N 45°46' W 073°23'1010.0
2014-Oct-23 06:33N 45°54' W 073°14'13 8.9
2014-Oct-23 05:08N 46°04' W 073°03'1010.2
2014-Oct-23 04:11N 46°11' W 072°54'711.0
2014-Oct-23 03:33N 46°15' W 072°45'10 9.7
2014-Oct-23 02:33N 46°20' W 072°33'1110.7
2014-Oct-23 01:33N 46°26' W 072°20'  
Track history (hours):
 
Tides and Currents Weather Stations Pressure Air Temp Water Temp Dewpoint Dewpoint Depression Visibility Wind Speed Wind Dir Waves Ship Positions

Kaministiqua

Last reported at 2014-Oct-30 18:33 UTC. Time now 2014-Oct-31 04:53 UTC.
Position N 44°14' W 076°08'.

Length 223 m; draft 8 m.

Type: Cargo ship. MMSI: 316009457.

Date/timePositionNaut miles runAvg speedWind from/ knotsBaromVisibWave heightAir tempDewpointWater temp
2014-Oct-30 18:33N 44°14' W 076°08'1110.9
2014-Oct-30 17:33N 44°08' W 076°20'1212.0
2014-Oct-30 16:32N 43°58' W 076°30'  
2014-Oct-24 10:27N 44°02' W 076°28'1011.5
2014-Oct-24 09:33N 44°10' W 076°19'96 6.9
2014-Oct-23 19:33N 45°06' W 074°29'1010.4
2014-Oct-23 18:33N 45°12' W 074°18'11 9.0
2014-Oct-23 17:22N 45°13' W 074°03'7 8.3
2014-Oct-23 16:33N 45°18' W 073°56'1 1.1
2014-Oct-23 15:33N 45°19' W 073°55'2 1.9
2014-Oct-23 14:33N 45°20' W 073°53'9 9.3
2014-Oct-23 13:34N 45°25' W 073°42'5 5.4
2014-Oct-23 12:33N 45°24' W 073°34'1 1.5
2014-Oct-23 11:33N 45°25' W 073°32'7 3.2
2014-Oct-23 09:30N 45°31' W 073°31'7 7.3
2014-Oct-23 08:33N 45°38' W 073°29'10 9.5
2014-Oct-23 07:33N 45°46' W 073°23'1010.0
2014-Oct-23 06:33N 45°54' W 073°14'13 8.9
2014-Oct-23 05:08N 46°04' W 073°03'1010.2
2014-Oct-23 04:11N 46°11' W 072°54'711.0
2014-Oct-23 03:33N 46°15' W 072°45'10 9.7
2014-Oct-23 02:33N 46°20' W 072°33'1110.7
2014-Oct-23 01:33N 46°26' W 072°20'  

Dump ship's entire track history